Location: ???? ?????????
(31.1304°N, 31.7111°E)
Time: 02:17:08
(UTC+00:00)

Milstar 3 - Pass Details

Date: 29 October 2020
Orbit: 1101 x 5144 km, 28.2° (Epoch: 25 September)

Event Time Altitude Azimuth Distance (km) Brightness Sun altitude
Rises 16:22:18 0° 267° (W) 4,425 7.7 -16.7°
Reaches altitude 10° 16:25:27 10° 266° (W) 3,203 6.5 -17.3°
Maximum altitude 16:32:32 71° 183° (S) 1,153 2.8 -18.8°
Enters shadow 16:36:12 29° 106° (ESE) 1,941 3.5 -19.6°
